Theta_e
325 324 324 323 323 323 323 323 323 323 323 324 324 324 325 326 327 325 320 335 343 361 363 357 356 352 351 343 344 341 326 319 320 320 322 330 326 331 334 332 335 337 329 327 335
324 323 323 323 322 323 323 323 323 323 323 323 323 324 325 326 326 322 342 365 360 364 355 350 346 347 340 338 339 332 323 321 329 327 326 328 327 329 328 327 328 332 332 334 337
324 323 322 322 322 322 322 322 322 322 323 323 323 323 325 327 324 328 364 364 365 363 360 351 345 341 337 335 333 329 321 326 330 330 332 328 328 331 325 325 331 327 329 330 330
323 323 322 321 321 322 322 322 322 322 322 322 323 324 326 327 319 332 367 364 365 357 358 349 339 328 329 324 332 323 329 328 328 331 331 327 330 327 325 328 335 332 329 329 328
324 322 322 321 321 321 321 322 322 322 322 322 323 324 326 321 328 338 367 362 351 354 353 339 329 330 330 329 330 323 325 331 330 332 330 330 327 326 326 331 333 332 331 328 328
323 322 322 321 321 321 321 321 322 321 321 322 323 325 323 317 336 334 340 347 351 353 351 344 339 339 334 328 327 331 330 329 332 332 334 327 329 326 327 332 330 331 331 332 332
323 322 321 321 321 320 321 321 321 321 321 322 324 328 323 322 339 334 348 349 352 354 347 343 343 337 331 326 330 331 326 329 332 334 332 331 325 324 327 329 328 328 330 332 333
322 321 320 320 319 320 320 320 320 321 321 323 326 329 321 330 344 340 351 349 354 354 350 350 345 333 327 329 327 326 326 320 328 331 327 328 317 326 328 328 326 329 330 332 333
321 321 319 319 318 318 318 318 319 321 323 326 327 325 318 335 336 340 347 343 348 350 350 347 341 327 330 321 319 321 308 314 323 332 325 322 318 327 330 328 327 329 331 332 334
321 320 319 318 318 317 317 316 319 323 326 331 330 320 321 322 332 340 344 343 341 341 340 338 334 321 322 318 311 313 314 317 321 326 324 321 320 326 330 328 328 329 331 333 334
320 320 318 318 317 317 317 323 321 322 322 315 316 317 321 327 337 339 341 339 339 335 327 331 319 315 317 321 321 320 318 317 323 326 325 324 325 327 328 329 329 330 330 331 333
319 319 318 317 316 315 319 326 325 324 313 319 318 317 322 326 328 334 340 332 330 324 327 323 312 318 323 323 320 317 317 318 322 326 325 326 325 328 328 327 330 330 331 332 333
319 318 317 316 314 316 323 328 330 328 317 314 317 316 319 325 326 329 334 331 326 323 321 317 319 323 322 320 316 317 315 316 318 322 324 323 323 326 329 329 329 331 332 334 333
318 318 318 314 311 325 323 331 330 328 313 310 312 315 319 321 319 329 333 329 324 319 321 319 323 319 318 318 318 312 319 319 317 315 311 322 310 319 327 328 328 328 330 331 334
317 315 317 312 322 327 327 330 330 326 302 312 313 322 320 315 317 320 332 327 319 319 320 317 320 319 318 317 320 315 320 320 320 312 311 313 308 311 317 320 327 328 330 331 335
315 313 316 317 322 328 332 331 327 311 301 308 314 313 313 314 315 322 324 327 325 319 321 319 323 324 320 321 320 321 319 318 315 313 304 313 308 309 314 320 329 331 331 333 334
313 312 315 327 327 333 332 327 312 306 314 308 310 312 312 310 313 315 316 316 314 311 312 316 318 322 323 318 320 321 315 305 301 306 304 314 311 316 323 328 332 331 334 335 335
311 311 317 324 331 332 328 320 309 314 310 314 312 311 309 312 313 314 314 311 317 316 311 310 309 318 321 318 316 315 312 303 297 299 306 314 310 315 325 330 330 334 335 335 336
311 325 326 332 330 328 322 313 312 312 312 312 312 308 309 312 312 313 312 311 314 315 309 309 310 320 321 322 319 312 311 315 308 310 308 311 314 323 326 327 329 333 333 333 334
328 334 334 339 335 329 318 309 313 315 314 314 308 311 307 309 309 311 312 315 313 316 316 313 310 316 320 322 321 316 318 309 311 304 302 305 304 313 323 326 328 332 331 331 334
328 329 336 337 334 325 316 317 315 317 318 314 312 312 311 309 310 310 311 314 317 317 317 316 314 311 315 315 314 314 311 313 312 310 306 304 309 326 327 329 329 331 334 336 337
330 324 336 336 322 320 316 320 312 319 320 319 317 314 312 312 310 311 310 314 317 318 312 316 313 308 310 318 319 317 313 313 307 307 315 313 314 330 331 332 333 334 336 338 339
325 328 337 334 317 319 323 321 320 319 318 316 315 317 318 314 310 313 314 319 317 317 314 316 313 304 309 313 316 312 313 313 313 313 312 310 314 331 332 333 336 337 340 344 344
327 322 329 330 323 318 315 318 317 320 319 320 320 321 317 316 316 314 314 317 318 317 329 323 314 308 305 309 316 312 312 314 312 310 310 311 317 326 331 334 336 338 341 343 348
330 325 327 318 322 322 322 318 316 316 321 321 319 315 314 312 314 313 316 316 318 319 320 318 312 314 313 314 315 314 313 313 312 315 311 312 315 322 331 331 331 335 337 338 339
325 323 330 326 318 323 314 319 317 317 318 316 317 318 315 311 314 313 314 315 316 319 317 319 311 316 311 313 313 312 313 314 314 315 316 315 315 324 322 333 333 334 333 333 336
332 331 327 321 322 319 317 318 319 321 320 320 318 317 316 320 320 320 319 320 317 316 316 315 313 311 307 313 314 308 312 314 315 320 319 315 317 320 324 330 332 332 334 335 337
Wind_Speed
9 8 8 9 9 9 9 9 9 9 9 11 11 11 12 13 16 8 10 3 7 17 10 13 15 11 12 6 11 9 4 7 10 4 9 9 14 12 13 14 16 11 21 23 23
11 9 8 9 9 8 9 9 9 9 9 10 10 11 12 13 9 15 9 12 18 15 11 13 11 10 8 6 3 12 7 5 17 6 13 12 9 8 5 11 8 22 26 25 21
12 10 9 8 8 8 9 9 9 9 9 10 10 10 11 13 9 3 12 16 15 17 19 11 3 3 13 12 12 5 7 8 16 7 15 10 11 10 2 18 20 17 26 23 18
14 11 9 8 8 9 9 10 10 9 9 10 10 10 10 7 3 7 10 15 15 17 17 6 11 3 12 10 8 10 17 7 7 12 10 9 9 10 16 15 24 23 23 21 17
13 12 8 8 8 9 9 10 10 9 9 9 9 9 8 9 6 12 13 11 13 15 19 25 9 9 21 15 12 14 15 5 7 12 9 11 9 19 18 21 21 22 23 21 18
14 12 8 8 8 9 9 10 10 10 10 9 8 9 7 11 12 17 15 14 15 17 22 17 17 19 14 7 5 21 5 7 16 7 19 9 10 20 20 21 19 20 19 19 21
15 13 10 8 8 9 10 9 10 10 10 9 7 7 10 12 10 15 16 17 17 16 21 7 10 19 15 23 17 2 8 6 16 7 13 16 3 13 21 20 21 20 19 19 19
16 13 11 9 8 9 9 8 10 11 10 9 7 8 10 6 5 15 17 17 18 18 17 14 10 25 11 9 11 12 2 1 7 23 11 9 9 18 22 19 21 21 19 18 20
16 12 11 9 8 9 9 9 10 11 10 9 7 8 12 5 13 16 17 17 18 14 13 10 7 22 9 8 5 6 9 11 9 15 13 17 9 12 20 18 18 17 16 11 9
15 12 10 9 8 8 8 7 2 7 8 10 12 9 9 12 15 15 17 17 13 12 13 14 6 6 4 8 12 10 9 18 14 11 23 16 18 14 18 20 17 16 16 14 16
16 12 10 8 7 6 6 6 6 8 14 13 13 14 12 16 14 15 16 15 15 15 13 16 11 4 20 25 22 13 13 9 11 9 24 23 21 15 16 17 19 17 16 14 11
16 12 9 7 6 5 7 9 7 7 10 20 12 21 7 17 12 16 15 17 16 16 16 10 17 27 25 30 38 2 7 8 12 9 15 12 15 15 14 15 17 17 18 18 16
16 12 8 4 5 4 12 19 8 8 7 15 11 9 7 9 16 19 17 17 20 17 18 11 12 20 25 30 4 4 2 5 8 7 4 7 7 14 12 13 13 16 16 18 17
16 13 8 0 3 11 15 17 8 6 8 16 18 13 16 13 21 15 19 18 19 19 19 8 12 19 26 13 8 2 6 7 5 13 8 18 3 6 7 12 13 14 15 15 19
18 13 8 11 13 9 5 4 9 4 8 15 17 11 11 14 16 18 18 19 20 19 15 14 21 21 18 3 10 8 14 8 26 19 6 5 7 11 11 15 14 15 16 16 18
19 11 6 6 7 14 13 7 6 8 7 12 11 11 18 17 22 15 15 17 17 17 18 20 21 33 12 7 6 7 7 28 13 10 6 15 10 8 6 18 20 19 18 16 15
19 9 8 9 5 9 7 7 6 9 6 11 14 15 18 17 17 17 16 19 16 12 15 18 16 15 11 10 12 23 19 8 9 6 5 15 5 8 22 21 21 20 19 19 16
19 5 14 9 10 12 8 9 13 11 9 9 12 17 16 19 17 16 15 17 19 20 16 12 15 18 13 14 9 13 16 10 9 7 14 19 3 8 7 10 1 12 18 2 7
17 6 8 11 16 10 9 7 9 3 2 11 14 14 19 15 11 13 17 18 20 20 21 13 9 10 8 11 15 8 6 19 14 21 9 5 18 7 7 8 4 20 20 13 19
6 9 15 15 16 9 9 19 3 4 2 8 13 11 10 12 8 12 17 18 19 22 20 8 7 11 13 14 13 13 10 6 10 3 7 10 18 10 10 6 7 18 18 25 31
7 6 9 12 8 7 9 13 6 3 10 5 8 17 9 14 12 14 11 13 16 17 16 7 6 7 8 19 21 14 12 12 14 4 5 9 5 13 9 9 11 11 12 14 10
8 7 7 10 7 7 10 10 7 3 21 15 5 4 11 13 9 9 2 11 13 13 13 11 10 5 24 29 22 12 10 12 10 5 12 12 7 15 13 12 12 12 11 10 6
9 7 18 11 2 7 22 7 5 10 19 8 13 19 27 17 6 11 6 10 4 10 0 9 12 5 10 14 8 7 12 10 15 7 14 6 9 11 11 12 13 13 10 7 7
7 7 4 6 10 13 15 11 6 2 2 4 11 22 20 15 5 1 13 11 10 10 6 3 13 11 7 14 20 12 4 7 13 8 13 8 12 10 12 13 13 14 11 10 9
7 2 3 6 6 21 21 5 14 3 11 4 2 19 8 8 21 6 10 12 10 4 4 7 8 7 2 12 18 18 8 4 7 5 5 12 11 3 12 13 12 13 12 12 11
6 8 8 16 10 25 5 9 5 9 7 4 12 9 17 6 11 6 14 7 11 10 10 14 5 7 4 10 18 20 13 7 10 5 20 14 10 17 21 15 13 12 11 11 11
10 12 8 10 17 15 10 5 23 10 7 5 8 9 7 17 15 14 14 2 6 6 14 14 10 6 3 5 19 13 12 7 9 20 27 16 8 6 14 9 14 14 12 11 11
Wind_Direction
334 329 320 313 311 310 307 306 308 312 316 315 323 326 322 318 299 229 239 219 168 174 235 189 221 230 240 252 231 66 6 127 110 310 120 117 88 77 114 139 155 152 141 129 131
340 331 320 309 304 300 299 298 301 307 310 311 318 320 321 325 268 254 199 134 151 171 203 206 210 226 250 236 101 54 325 92 140 144 85 103 111 137 161 109 99 106 125 126 129
344 336 322 308 299 294 288 291 293 298 302 305 312 315 317 311 269 194 144 147 174 182 224 190 258 347 330 310 122 130 229 93 110 114 80 113 121 144 90 107 117 125 137 136 133
343 337 325 308 295 289 282 283 286 290 295 300 306 312 314 261 292 108 148 162 190 198 235 229 29 9 187 261 112 132 262 71 135 110 141 113 119 104 81 91 137 139 136 134 152
339 336 328 307 291 284 279 277 281 284 286 295 304 315 278 228 240 136 149 175 194 209 239 118 180 242 235 219 119 144 258 152 106 119 129 106 87 105 100 112 125 137 139 155 171
338 335 322 308 288 275 269 273 275 279 285 291 301 307 251 253 96 145 165 170 209 211 237 212 195 220 257 11 18 168 71 163 31 147 71 112 48 117 121 130 136 145 147 159 154
335 332 325 310 291 272 268 268 274 277 279 286 293 276 258 270 143 164 170 187 212 230 254 234 328 10 26 346 328 225 146 192 152 121 62 345 116 149 135 139 142 155 162 168 177
336 331 328 307 292 279 269 267 271 271 273 272 275 254 272 177 196 183 182 201 224 239 280 323 344 93 16 246 3 342 113 263 126 105 121 130 292 136 144 152 156 159 166 177 173
336 332 325 308 291 277 274 273 265 268 266 260 234 232 240 120 216 198 195 217 222 239 260 285 318 114 206 2 22 287 164 223 158 127 106 61 262 180 157 164 163 166 161 171 184
333 329 326 311 294 281 278 269 223 249 222 216 260 238 244 213 200 203 209 230 236 243 246 247 240 95 39 152 225 192 212 218 137 175 123 148 238 161 175 172 171 169 170 186 180
336 331 323 303 290 284 274 197 193 193 212 205 189 221 241 207 177 205 209 225 239 248 263 256 62 320 253 224 228 186 192 168 117 181 151 164 184 162 182 187 173 174 180 184 198
335 332 323 308 296 305 274 244 8 354 190 239 273 211 211 190 174 203 202 227 236 243 252 227 101 237 261 248 245 238 83 153 129 190 179 142 144 158 180 194 180 187 186 178 184
333 325 317 311 321 248 240 280 317 295 250 190 216 219 213 183 207 197 201 221 244 234 251 264 160 243 249 285 93 70 147 198 176 178 40 134 147 154 183 190 190 189 200 184 175
332 319 299 31 278 219 221 235 261 274 262 161 207 215 196 202 232 214 189 224 237 266 259 143 168 263 270 267 64 318 301 197 181 65 359 356 332 321 187 200 194 201 201 197 171
335 320 271 225 322 264 51 293 324 250 269 148 179 196 185 197 213 214 181 226 247 243 255 250 192 217 245 126 118 215 255 77 93 80 42 339 61 278 302 275 196 206 202 200 176
336 316 226 200 228 255 304 316 244 231 286 154 145 184 199 208 228 175 190 217 244 262 267 260 79 263 270 339 255 305 326 57 89 103 189 188 179 267 222 222 193 194 200 207 192
337 310 225 311 243 353 320 268 240 248 185 144 165 187 198 193 217 217 187 206 226 226 251 264 233 264 255 269 252 102 62 30 19 205 157 127 169 202 218 230 195 189 197 187 187
331 286 224 251 302 300 273 251 269 235 168 160 168 179 199 192 206 177 202 217 216 250 257 217 240 228 236 237 268 78 115 125 218 226 147 155 79 87 88 97 350 210 164 124 182
318 205 251 235 217 248 259 226 199 273 51 157 163 190 207 186 217 179 207 212 222 214 248 238 247 296 286 284 241 138 113 214 210 245 83 47 360 82 61 60 98 96 103 64 325
291 261 245 202 161 209 235 250 170 349 269 181 193 217 195 179 203 200 192 215 224 212 230 268 327 311 299 312 289 287 310 248 229 307 117 125 176 222 110 78 102 116 131 151 205
248 249 112 138 176 235 270 309 142 139 314 18 333 328 221 183 195 191 205 224 227 191 216 192 2 274 300 276 267 220 237 247 266 258 128 151 101 110 119 111 109 115 139 169 151
289 272 289 157 215 34 276 267 360 130 6 351 56 277 348 299 189 224 335 237 190 249 206 158 241 223 212 237 242 249 250 268 267 218 71 106 106 112 134 120 97 99 109 111 82
297 272 233 200 307 195 254 271 144 131 156 235 187 210 190 246 158 237 57 14 173 239 208 230 197 123 277 237 220 266 256 252 281 301 40 80 127 122 114 118 112 113 116 120 116
280 290 346 261 165 159 301 339 18 232 312 312 339 35 1 353 13 245 173 213 180 227 14 339 82 88 333 290 309 293 244 267 274 63 84 83 128 123 124 124 117 110 113 114 106
243 2 238 299 272 223 225 254 238 112 289 289 2 128 243 345 310 15 353 140 193 131 213 244 79 2 226 280 302 279 306 175 260 85 105 165 125 193 135 133 128 125 129 126 113
335 341 330 295 360 297 301 236 129 293 13 96 318 125 115 79 247 335 224 328 197 172 212 238 121 153 268 251 263 261 233 275 317 299 102 159 63 15 331 131 136 129 122 116 112
5 343 291 284 286 282 260 69 336 339 327 294 320 323 320 189 224 246 136 5 296 267 232 247 110 40 288 242 281 232 256 247 238 102 133 134 157 356 294 193 147 144 140 129 117